This demonstration page uses our WeatherBlox Daily Observations layout. Learn more.

41.55636, -103.73856

Hourly Observations for May 6, 2019

Temp ( °F °C ) Dew Point ( °F °C ) Humidity (%) Winds ( mph kmh ) Pressure ( in mb ) Visibility ( mi km ) Precip ( " mm )
12:01 am 00:01 Mostly Cloudy 49 9.4 42 5.6 77 77 ENE 22 35 29.88 1012 10 16.09344 0 0
12:53 am 00:53 Cloudy 48 8.9 41 5 77 77 ENE 20 31 29.88 1012 10 16.09344 0 0
1:53 am 01:53 Cloudy 43 6.1 39 3.9 86 86 NE 16 26 29.91 1013 10 16.09344 0 0
2:53 am 02:53 Cloudy 43 6.1 39 3.9 86 86 NE 16 26 29.88 1012 10 16.09344 0 0
3:53 am 03:53 Cloudy 42 5.6 38 3.3 85 85 E 13 20 29.91 1013 10 16.09344 0 0
4:53 am 04:53 Cloudy 43 6.1 38 3.3 82 82 E 8 13 29.91 1013 10 16.09344 0 0
5:53 am 05:53 Cloudy 43 6.1 38 3.3 82 82 ENE 13 20 29.91 1013 10 16.09344 0 0
6:53 am 06:53 Cloudy 42 5.6 38 3.3 85 85 ENE 13 20 29.94 1014 10 16.09344 0 0
7:53 am 07:53 Cloudy 42 5.6 38 3.3 85 85 ENE 10 17 29.97 1015 10 16.09344 0 0
8:04 am 08:04 Cloudy 42 5.6 38 3.3 85 85 ENE 13 20 30.06 1018 10 16.09344 0 0
8:51 am 08:51 Cloudy 43 6 39 4 87 87 E 12 19 30.06 1018 9 14.484096 0 0
8:53 am 08:53 Cloudy 43 6.1 40 4.4 89 89 E 12 19 29.97 1015 9 14.484096 0 0
9:53 am 09:53 Cloudy 45 7.2 41 5 86 86 ESE 12 19 29.97 1015 10 16.09344 0 0
10:53 am 10:53 Cloudy 48 8.9 43 6.1 83 83 ESE 13 20 29.97 1015 10 16.09344 0 0
11:53 am 11:53 Cloudy 49 9.4 44 6.7 83 83 SE 13 20 29.97 1015 10 16.09344 0 0
12:48 pm 12:48 Cloudy 54 12 46 8 77 77 SE 14 22 29.91 1013 10 16.09344 0 0
12:53 pm 12:53 Cloudy 53 11.7 46 7.8 77 77 ESE 10 17 29.94 1014 10 16.09344 0 0
1:39 pm 13:39 Cloudy 52 11.1 46 7.8 80 80 ESE 8 13 29.94 1014 10 16.09344 0 0
1:53 pm 13:53 Cloudy 53 11.7 47 8.3 80 80 SSE 7 11 29.97 1015 10 16.09344 0 0
2:53 pm 14:53 Mostly Cloudy 58 14.4 47 8.3 67 67 E 13 20 29.94 1014 10 16.09344 0 0
3:53 pm 15:53 Cloudy 53 11.7 45 7.2 74 74 E 16 26 29.97 1015 10 16.09344 0 0
4:44 pm 16:44 Cloudy 48 9 45 7 87 87 ENE 16 26 30 1016 10 16.09344 0 0
4:53 pm 16:53 Cloudy 47 8.3 43 6.1 86 86 NE 18 30 30.03 1017 10 16.09344 0 0
5:10 pm 17:10 Cloudy 46 8 43 6 87 87 NE 18 30 30.06 1018 10 16.09344 0 0
5:53 pm 17:53 Cloudy 46 7.8 43 6.1 89 89 ENE 15 24 30.06 1018 10 16.09344 0 0
6:53 pm 18:53 Cloudy 46 7.8 43 6.1 89 89 ENE 14 22 30.06 1018 10 16.09344 0 0
7:53 pm 19:53 Cloudy 45 7.2 42 5.6 90 90 E 18 30 30.06 1018 10 16.09344 0 0
8:53 pm 20:53 Cloudy with Mist and Fog 45 7.2 43 6.1 93 93 E 10 17 30.09 1019 6 9.656064 0 0
9:15 pm 21:15 Cloudy with Mist and Fog 45 7.2 44 6.7 97 97 E 9 15 30.12 1020 2 3.218688 0 0
9:53 pm 21:53 Cloudy with Mist and Fog 44 6.7 44 6.7 100 100 ENE 7 11 30.12 1020 2 3.218688 0 0
10:19 pm 22:19 Cloudy with Mist and Fog 42 5.6 41 5 96 96 NE 15 24 30.12 1020 3 4.828032 0 0
10:53 pm 22:53 Cloudy with Light Rain 41 5 40 4.4 96 96 ENE 12 19 30.09 1019 10 16.09344 0.001 0.001
11:53 pm 23:53 Cloudy 41 5 40 4.4 96 96 ENE 13 20 30.09 1019 10 16.09344 0.001 0.001

Powered by AerisWeather